New Orleans Lakefront, LA

7:53 PM CST on November 12, 2019 (GMT -0600)
Lakefront

Weather History for KNEW - September, 2019

Change the Weather History Date:

Saturday, September 14, 2019

  Actual Average Record
Temperature  
Mean Temperature 85 °F 80 °F  
Max Temperature 93 °F 88 °F 97 °F (1980)
Min Temperature 76 °F 73 °F 57 °F (1964)
Degree Days  
Heating Degree Days 0 0  
Month to date heating degree days 0 0  
Since 1 July heating degree days 0 0  
Cooling Degree Days 20 15  
Month to date cooling degree days 310 231  
Year to date cooling degree days 2951 2477  
Growing Degree Days 36 (Base 50)    
Moisture  
Dew Point 72 °F    
Average Humidity 62    
Maximum Humidity 79    
Minimum Humidity 44    
Precipitation  
Precipitation 0.00 in 0.17 in 1.45 in (1977)
Month to date precipitation 0.02 2.63  
Year to date precipitation 46.78 46.84  
Snow  
Snow 0.00 in - - ()
Month to date snowfall 0.0  
Since 1 July snowfall 0.0  
Since 1 September snowfall 0.0  
Snow Depth 0.00 in    
Sea Level Pressure  
Sea Level Pressure 30.05 in    
Wind  
Wind Speed 7 mph (East)    
Max Wind Speed 20 mph    
Max Gust Speed 24 mph    
Visibility 10 miles    
Events Thunderstorm    
T = Trace of Precipitation, MM = Missing Value Source: NWS Daily Summary

Daily Weather History Graph

Daily Weather History Graph

Search for Another Location

Airport or City:

Astronomy

Sep. 14, 2019 Rise Set
Actual Time 6:44 AM CDT 7:06 PM CDT
Civil Twilight 6:20 AM CDT 7:30 PM CDT
Nautical Twilight 5:51 AM CDT 7:58 PM CDT
Astronomical Twilight 5:23 AM CDT 8:27 PM CDT
Moon 7:47 PM CDT (9/14) 7:00 AM CDT (9/14)
Length of Visible Light 13h 10m
Length of Day
12h 22m
Full, 100% of the Moon is Illuminated
Sep 14
Full
Sep 21
Last Quarter
Sep 28
New
Oct 5
First Quarter
Oct 13
Full

Hourly Weather History & Observations

Time (CDT) Temp. Heat Index Dew Point Humidity Pressure Visibility Wind Dir Wind Speed Gust Speed Precip Events Conditions
12:53 AM 84.9 °F 91.4 °F 73.0 °F 67% 30.05 in 10.0 mi East 5.8 mph - N/A   Clear
1:53 AM 84.9 °F 90.1 °F 71.1 °F 63% 30.04 in 10.0 mi East 6.9 mph - N/A   Clear
2:53 AM 84.9 °F 90.1 °F 71.1 °F 63% 30.03 in 10.0 mi ENE 6.9 mph - N/A   Clear
3:53 AM 84.0 °F 91.9 °F 75.0 °F 74% 30.02 in 10.0 mi NE 10.4 mph - N/A   Clear
4:53 AM 84.0 °F 91.2 °F 73.9 °F 72% 30.04 in 10.0 mi NE 12.7 mph - N/A   Clear
5:53 AM 82.9 °F 90.2 °F 75.0 °F 77% 30.04 in 8.0 mi NE 12.7 mph - N/A   Clear
6:53 AM 82.9 °F 89.4 °F 73.9 °F 74% 30.04 in 9.0 mi NE 13.8 mph - N/A   Clear
7:33 AM 84.0 °F 91.2 °F 73.9 °F 72% 30.09 in 9.0 mi NE 12.7 mph - N/A Thunderstorm Clear
7:48 AM 84.2 °F 90.9 °F 73.4 °F 70% 30.09 in 9.0 mi NE 15.0 mph - N/A   Clear
7:53 AM 84.0 °F 91.2 °F 73.9 °F 72% 30.07 in 9.0 mi NE 15.0 mph - N/A   Clear
8:53 AM 82.0 °F 86.7 °F 72.0 °F 71% 30.08 in 9.0 mi ESE 6.9 mph - N/A   Scattered Clouds
9:53 AM 86.0 °F 93.0 °F 73.0 °F 65% 30.08 in 10.0 mi ENE 12.7 mph - N/A   Clear
10:53 AM 86.0 °F 92.2 °F 72.0 °F 63% 30.09 in 10.0 mi ENE 13.8 mph - N/A   Partly Cloudy
11:53 AM 88.0 °F 94.7 °F 72.0 °F 59% 30.08 in 10.0 mi East 12.7 mph - N/A   Partly Cloudy
12:53 PM 87.1 °F 92.8 °F 71.1 °F 59% 30.07 in 10.0 mi East 15.0 mph 21.9 mph N/A   Clear
1:53 PM 89.1 °F 93.7 °F 69.1 °F 52% 30.04 in 10.0 mi ENE 13.8 mph - N/A   Clear
2:53 PM 89.1 °F 95.0 °F 71.1 °F 55% 30.03 in 10.0 mi East 13.8 mph - N/A   Clear
3:53 PM 88.0 °F 92.9 °F 70.0 °F 55% 30.02 in 10.0 mi ESE 15.0 mph - N/A   Clear
4:53 PM 87.1 °F 92.8 °F 71.1 °F 59% 30.02 in 10.0 mi East 15.0 mph - N/A   Clear
5:53 PM 86.0 °F 90.7 °F 70.0 °F 59% 30.01 in 10.0 mi ESE 12.7 mph - N/A   Clear
6:53 PM 84.9 °F 90.1 °F 71.1 °F 63% 30.02 in 10.0 mi ESE 6.9 mph - N/A   Clear
7:53 PM 84.0 °F 89.6 °F 72.0 °F 67% 30.02 in 10.0 mi SE 5.8 mph - N/A   Clear
8:53 PM 82.0 °F 87.4 °F 73.0 °F 74% 30.03 in 10.0 mi SE 3.5 mph - N/A   Clear
9:53 PM 82.0 °F 87.9 °F 73.9 °F 76% 30.04 in 10.0 mi ESE 3.5 mph - N/A   Clear
10:53 PM 82.9 °F 89.4 °F 73.9 °F 74% 30.05 in 10.0 mi ESE 3.5 mph - N/A   Scattered Clouds
11:53 PM 82.9 °F 89.4 °F 73.9 °F 74% 30.04 in 10.0 mi East 4.6 mph - N/A   Partly Cloudy